Alexandria Esle, LA

12:56 PM CDT on May 21, 2018 (GMT -0500)
Alexandria Esler Regional

Weather History for KESF - February, 2013

Change the Weather History Date:

Thursday, February 21, 2013

  Actual Average Record
Temperature  
Mean Temperature 58 °F -  
Max Temperature 66 °F 67 °F 84 °F (2011)
Min Temperature 51 °F 41 °F 26 °F (1964)
Degree Days  
Heating Degree Days 6    
Growing Degree Days 8 (Base 50)    
Moisture  
Dew Point 55 °F    
Average Humidity 82    
Maximum Humidity 97    
Minimum Humidity 45    
Precipitation  
Precipitation 0.86 in - - ()
Sea Level Pressure  
Sea Level Pressure 29.78 in    
Wind  
Wind Speed 7 mph (SSE)    
Max Wind Speed 16 mph    
Max Gust Speed 32 mph    
Visibility 8 miles    
Events Rain , Thunderstorm    
Averages and records for this station are not official NWS values.
T = Trace of Precipitation, MM = Missing Value Source: NWS Daily Summary

Daily Weather History Graph

Daily Weather History Graph

Search for Another Location

Airport or City:

Astronomy

Feb. 21, 2013 Rise Set
Actual Time 6:44 AM CST 6:01 PM CST
Civil Twilight 6:19 AM CST 6:26 PM CST
Nautical Twilight 5:51 AM CST 6:54 PM CST
Astronomical Twilight 5:23 AM CST 7:22 PM CST
Moon 2:26 PM CST 3:39 AM CST
Length of Visible Light 12h 06m
Length of Day
11h 17m
Waxing Gibbous, 84% of the Moon is Illuminated
Feb 21
Waxing Gibbous
Feb 25
Full
Mar 4
Last Quarter
Mar 11
New
Mar 19
First Quarter

Hourly Weather History & Observations

Time (CST) Temp. Dew Point Humidity Pressure Visibility Wind Dir Wind Speed Gust Speed Precip Events Conditions
12:53 AM 52.0 °F 30.9 °F 45% 29.97 in 10.0 mi East 8.1 mph - N/A   Overcast
1:53 AM 52.0 °F 30.9 °F 45% 29.94 in 10.0 mi East 5.8 mph - N/A   Overcast
2:53 AM 52.0 °F 32.0 °F 47% 29.94 in 10.0 mi ESE 5.8 mph - N/A   Overcast
3:53 AM 52.0 °F 33.1 °F 49% 29.92 in 10.0 mi East 5.8 mph - N/A   Overcast
4:53 AM 52.0 °F 33.1 °F 49% 29.92 in 10.0 mi East 4.6 mph - N/A   Overcast
5:53 AM 52.0 °F 34.0 °F 50% 29.90 in 10.0 mi East 6.9 mph - N/A   Overcast
6:53 AM 52.0 °F 36.0 °F 54% 29.91 in 10.0 mi East 5.8 mph - N/A   Overcast
7:25 AM 51.8 °F 39.2 °F 62% 29.89 in 9.0 mi East 8.1 mph - 0.00 in Rain , Thunderstorm Light Rain
7:46 AM 51.8 °F 41.0 °F 67% 29.90 in 10.0 mi ESE 6.9 mph - 0.00 in Rain Light Rain
7:53 AM 51.1 °F 42.1 °F 71% 29.90 in 5.0 mi East 4.6 mph - 0.03 in Rain , Thunderstorm Rain
8:43 AM 51.8 °F 46.4 °F 82% 29.86 in 10.0 mi ESE 6.9 mph 18.4 mph N/A Rain Light Rain
8:53 AM 52.0 °F 46.9 °F 83% 29.84 in 10.0 mi ESE 9.2 mph 17.3 mph 0.05 in Rain Light Rain
9:53 AM 57.0 °F 50.0 °F 77% 29.84 in 10.0 mi SSE 9.2 mph - 0.00 in   Overcast
10:33 AM 62.6 °F 53.6 °F 72% 29.82 in 10.0 mi SSE 15.0 mph 27.6 mph N/A   Overcast
10:41 AM 62.6 °F 53.6 °F 72% 29.81 in 10.0 mi SSE 16.1 mph 26.5 mph N/A   Overcast
10:51 AM 62.6 °F 53.6 °F 72% 29.81 in 10.0 mi SSE 15.0 mph 23.0 mph N/A   Overcast
10:53 AM 63.0 °F 54.0 °F 72% 29.81 in 10.0 mi SSE 16.1 mph 24.2 mph N/A   Overcast
11:41 AM 66.2 °F 55.4 °F 68% 29.79 in 10.0 mi SE 10.4 mph 24.2 mph N/A   Overcast
11:53 AM 66.0 °F 57.0 °F 73% 29.78 in 10.0 mi SSE 11.5 mph 32.2 mph N/A   Overcast
12:53 PM 66.0 °F 57.9 °F 75% 29.74 in 10.0 mi Variable 6.9 mph 16.1 mph 0.01 in Rain Light Rain
1:03 PM 64.4 °F 60.8 °F 88% 29.73 in 7.0 mi SE 9.2 mph 18.4 mph 0.01 in Rain , Thunderstorm Light Thunderstorms and Rain
1:33 PM 64.4 °F 60.8 °F 88% 29.74 in 2.5 mi Variable 3.5 mph - 0.09 in Rain , Thunderstorm Rain
1:38 PM 62.6 °F 60.8 °F 94% 29.73 in 1.8 mi Variable 3.5 mph - 0.16 in Rain , Thunderstorm Heavy Rain
1:46 PM 62.6 °F 60.8 °F 94% 29.74 in 1.2 mi Calm Calm - 0.23 in Rain , Thunderstorm Heavy Thunderstorms and Rain
1:53 PM 63.0 °F 61.0 °F 93% 29.71 in 1.0 mi SE 5.8 mph - 0.30 in Rain , Thunderstorm Heavy Thunderstorms and Rain
1:59 PM 64.4 °F 62.6 °F 94% 29.72 in 2.5 mi Variable 4.6 mph - 0.00 in Rain Light Rain
2:06 PM 64.4 °F 62.6 °F 94% 29.71 in 10.0 mi Calm Calm - 0.00 in   Overcast
2:33 PM 64.4 °F 62.6 °F 94% 29.69 in 9.0 mi SSE 4.6 mph - 0.00 in Thunderstorm Mostly Cloudy
2:48 PM 64.4 °F 62.6 °F 94% 29.69 in 10.0 mi SE 3.5 mph - 0.01 in Rain Light Rain
2:53 PM 64.9 °F 63.0 °F 93% 29.68 in 10.0 mi Calm Calm - 0.01 in   Overcast
3:00 PM 64.4 °F 62.6 °F 94% 29.68 in 10.0 mi SE 5.8 mph - 0.00 in Rain Light Rain
3:09 PM 64.4 °F 62.6 °F 94% 29.68 in 10.0 mi Calm Calm - 0.00 in   Mostly Cloudy
3:29 PM 64.4 °F 62.6 °F 94% 29.66 in 10.0 mi South 3.5 mph - 0.00 in   Overcast
3:36 PM 64.4 °F 62.6 °F 94% 29.66 in 10.0 mi South 6.9 mph - 0.00 in   Overcast
3:43 PM 64.4 °F 62.6 °F 94% 29.66 in 10.0 mi SSE 9.2 mph - 0.00 in Thunderstorm Overcast
3:53 PM 66.9 °F 64.0 °F 90% 29.66 in 10.0 mi South 6.9 mph - 0.00 in Thunderstorm Mostly Cloudy
4:22 PM 66.2 °F 64.4 °F 94% 29.68 in 5.0 mi WNW 6.9 mph 20.7 mph 0.02 in Rain , Thunderstorm Light Thunderstorms and Rain
4:26 PM 66.2 °F 64.4 °F 94% 29.68 in 2.5 mi WNW 10.4 mph 20.7 mph 0.06 in Rain Heavy Rain
4:34 PM 64.4 °F 62.6 °F 94% 29.69 in 1.0 mi West 10.4 mph 18.4 mph 0.25 in Rain , Thunderstorm Heavy Rain
4:53 PM 64.9 °F 62.1 °F 90% 29.70 in 1.8 mi West 6.9 mph - 0.40 in Rain Light Rain
4:56 PM 64.4 °F 62.6 °F 94% 29.69 in 4.0 mi West 4.6 mph - 0.00 in Rain Light Rain
5:03 PM 64.4 °F 62.6 °F 94% 29.70 in 10.0 mi WSW 4.6 mph - 0.00 in   Overcast
5:29 PM 66.2 °F 62.6 °F 88% 29.72 in 10.0 mi West 10.4 mph 17.3 mph 0.00 in Thunderstorm Overcast
5:53 PM 66.0 °F 63.0 °F 90% 29.73 in 8.0 mi West 10.4 mph - 0.01 in Rain Light Rain
6:03 PM 66.2 °F 62.6 °F 88% 29.73 in 6.0 mi WSW 6.9 mph - 0.02 in Rain Light Rain
6:53 PM 64.9 °F 63.0 °F 93% 29.77 in 10.0 mi Calm Calm - 0.05 in Rain Light Rain
7:19 PM 64.4 °F 62.6 °F 94% 29.78 in 2.0 mi Calm Calm - 0.00 in   Mostly Cloudy
7:28 PM 64.4 °F 62.6 °F 94% 29.78 in 10.0 mi Calm Calm - 0.00 in   Mostly Cloudy
7:53 PM 63.0 °F 62.1 °F 97% 29.79 in 2.5 mi Calm Calm - 0.00 in   Mostly Cloudy
8:04 PM 64.4 °F 62.6 °F 94% 29.81 in 3.0 mi Calm Calm - N/A   Overcast
8:53 PM 63.0 °F 61.0 °F 93% 29.83 in 10.0 mi Calm Calm - N/A   Overcast
9:53 PM 61.0 °F 59.0 °F 93% 29.85 in 8.0 mi Calm Calm - N/A   Overcast
10:53 PM 61.0 °F 54.0 °F 78% 29.87 in 10.0 mi Calm Calm - N/A   Mostly Cloudy
11:53 PM 59.0 °F 52.0 °F 78% 29.88 in 10.0 mi Calm Calm - N/A   Clear